Stündliche Wetter Ababkovo

Heute, 22 Juni, Dienstag

Zeit Temperatur Niederschläge Wind Luftdruck Luftfeuchtigkeit
00:00 +20°C° 0 mm 1 m/S 743 mmHg 85%
01:00 +20°C° 0 mm 1 m/S 744 mmHg 86%
02:00 +20°C° 0 mm 1 m/S 744 mmHg 88%
03:00 +20°C° 0 mm 1 m/S 744 mmHg 87%
04:00 +21°C° 0 mm 1 m/S 744 mmHg 87%
05:00 +22°C° 0 mm 1 m/S 744 mmHg 86%
06:00 +24°C° 0 mm 1 m/S 744 mmHg 78%
07:00 +26°C° 0 mm 2 m/S 744 mmHg 69%
08:00 +28°C° 0 mm 2 m/S 744 mmHg 61%
09:00 +29°C° 0 mm 3 m/S 744 mmHg 55%
10:00 +31°C° 0 mm 3 m/S 744 mmHg 49%
11:00 +33°C° 0 mm 3 m/S 744 mmHg 43%
12:00 +34°C° 0 mm 3 m/S 744 mmHg 41%
13:00 +34°C° 0 mm 3 m/S 743 mmHg 38%
14:00 +35°C° 0 mm 4 m/S 743 mmHg 36%
15:00 +34°C° 0 mm 3 m/S 743 mmHg 39%
16:00 +34°C° 0 mm 3 m/S 743 mmHg 42%
17:00 +33°C° 0 mm 3 m/S 743 mmHg 44%
18:00 +30°C° 0 mm 3 m/S 743 mmHg 53%
19:00 +27°C° 0 mm 2 m/S 743 mmHg 63%
20:00 +25°C° 0 mm 2 m/S 743 mmHg 72%
21:00 +24°C° 0 mm 2 m/S 743 mmHg 74%
22:00 +23°C° 0 mm 2 m/S 743 mmHg 76%
23:00 +21°C° 0 mm 2 m/S 743 mmHg 78%

Morgen, 23 Juni, Mittwoch

Zeit Temperatur Niederschläge Wind Luftdruck Luftfeuchtigkeit
00:00 +21°C° 0 mm 2 m/S 743 mmHg 82%
01:00 +20°C° 0 mm 2 m/S 744 mmHg 85%
02:00 +20°C° 0 mm 2 m/S 744 mmHg 89%
03:00 +21°C° 0 mm 2 m/S 744 mmHg 87%
04:00 +22°C° 0 mm 1 m/S 744 mmHg 86%
05:00 +23°C° 0 mm 1 m/S 744 mmHg 84%
06:00 +25°C° 0 mm 2 m/S 744 mmHg 76%
07:00 +27°C° 0 mm 2 m/S 744 mmHg 68%
08:00 +29°C° 0 mm 2 m/S 745 mmHg 59%
09:00 +31°C° 0 mm 2 m/S 745 mmHg 52%
10:00 +33°C° 0 mm 3 m/S 744 mmHg 45%
11:00 +34°C° 0 mm 3 m/S 744 mmHg 38%
12:00 +35°C° 0 mm 3 m/S 744 mmHg 36%
13:00 +35°C° 0 mm 3 m/S 744 mmHg 34%
14:00 +36°C° 0 mm 4 m/S 744 mmHg 32%
15:00 +35°C° 0 mm 3 m/S 744 mmHg 35%
16:00 +34°C° 0 mm 3 m/S 744 mmHg 38%
17:00 +34°C° 0 mm 3 m/S 744 mmHg 42%
18:00 +31°C° 0 mm 3 m/S 744 mmHg 51%
19:00 +28°C° 0 mm 2 m/S 744 mmHg 61%
20:00 +26°C° 0 mm 2 m/S 743 mmHg 71%
21:00 +25°C° 0 mm 2 m/S 743 mmHg 71%
22:00 +24°C° 0 mm 2 m/S 744 mmHg 71%
23:00 +23°C° 0 mm 2 m/S 744 mmHg 71%

übermorgen, 24 Juni, Donnerstag

Zeit Temperatur Niederschläge Wind Luftdruck Luftfeuchtigkeit
00:00 +23°C° 0 mm 2 m/S 744 mmHg 73%
01:00 +21°C° 0 mm 2 m/S 744 mmHg 75%
02:00 +21°C° 0 mm 2 m/S 744 mmHg 78%
03:00 +23°C° 0 mm 2 m/S 744 mmHg 78%
04:00 +23°C° 0 mm 1 m/S 744 mmHg 78%
05:00 +24°C° 0 mm 1 m/S 744 mmHg 78%
06:00 +26°C° 0 mm 1 m/S 744 mmHg 70%
07:00 +28°C° 0 mm 2 m/S 744 mmHg 62%
08:00 +30°C° 0 mm 2 m/S 744 mmHg 54%
09:00 +31°C° 0 mm 2 m/S 744 mmHg 49%
10:00 +32°C° 0 mm 2 m/S 744 mmHg 44%
11:00 +35°C° 0 mm 2 m/S 744 mmHg 39%
12:00 +35°C° 0 mm 2 m/S 743 mmHg 36%
13:00 +36°C° 0 mm 2 m/S 743 mmHg 34%
14:00 +36°C° 0 mm 3 m/S 743 mmHg 31%
15:00 +35°C° 0 mm 3 m/S 743 mmHg 34%
16:00 +35°C° 0 mm 3 m/S 742 mmHg 37%
17:00 +34°C° 0 mm 3 m/S 742 mmHg 40%
18:00 +29°C° 0.7 mm 3 m/S 742 mmHg 57%
19:00 +25°C° 0.7 mm 3 m/S 742 mmHg 75%
20:00 +20°C° 0.7 mm 3 m/S 742 mmHg 92%
21:00 +20°C° 0.6 mm 3 m/S 742 mmHg 92%
22:00 +20°C° 0.6 mm 2 m/S 742 mmHg 93%
23:00 +19°C° 0.6 mm 2 m/S 742 mmHg 93%

25 Juni, Freitag

Zeit Temperatur Niederschläge Wind Luftdruck Luftfeuchtigkeit
00:00 +20°C° 0.1 mm 1 m/S 742 mmHg 93%
01:00 +20°C° 0.1 mm 1 m/S 742 mmHg 92%
02:00 +20°C° 0.1 mm 1 m/S 742 mmHg 91%
03:00 +20°C° 0 mm 1 m/S 742 mmHg 90%
04:00 +21°C° 0 mm 1 m/S 742 mmHg 90%
05:00 +21°C° 0 mm 1 m/S 742 mmHg 89%
06:00 +23°C° 0 mm 1 m/S 742 mmHg 80%
07:00 +25°C° 0 mm 1 m/S 742 mmHg 72%
08:00 +27°C° 0 mm 1 m/S 742 mmHg 63%
09:00 +29°C° 0 mm 1 m/S 742 mmHg 57%
10:00 +31°C° 0 mm 1 m/S 742 mmHg 51%
11:00 +33°C° 0 mm 1 m/S 742 mmHg 45%
12:00 +33°C° 0 mm 1 m/S 741 mmHg 42%
13:00 +34°C° 0 mm 1 m/S 741 mmHg 39%
14:00 +35°C° 0 mm 1 m/S 741 mmHg 36%
15:00 +34°C° 0 mm 1 m/S 740 mmHg 39%
16:00 +34°C° 0 mm 2 m/S 740 mmHg 43%
17:00 +32°C° 0 mm 2 m/S 739 mmHg 46%
18:00 +28°C° 3.1 mm 2 m/S 740 mmHg 63%
19:00 +24°C° 3.1 mm 3 m/S 740 mmHg 79%
20:00 +19°C° 3.1 mm 3 m/S 740 mmHg 95%
21:00 +19°C° 0.6 mm 3 m/S 740 mmHg 95%
22:00 +19°C° 0.6 mm 3 m/S 740 mmHg 96%
23:00 +18°C° 0.6 mm 3 m/S 740 mmHg 96%

26 Juni, Samstag

Zeit Temperatur Niederschläge Wind Luftdruck Luftfeuchtigkeit
00:00 +18°C° 0 mm 2 m/S 740 mmHg 96%
01:00 +18°C° 0 mm 2 m/S 739 mmHg 95%
02:00 +19°C° 0 mm 1 m/S 739 mmHg 95%
03:00 +19°C° 0 mm 1 m/S 739 mmHg 94%
04:00 +20°C° 0 mm 1 m/S 739 mmHg 93%
05:00 +20°C° 0 mm 1 m/S 739 mmHg 92%
06:00 +22°C° 0 mm 1 m/S 739 mmHg 84%
07:00 +24°C° 0 mm 1 m/S 739 mmHg 75%
08:00 +26°C° 0 mm 2 m/S 739 mmHg 67%
09:00 +28°C° 0 mm 2 m/S 739 mmHg 61%
10:00 +30°C° 0 mm 1 m/S 739 mmHg 55%
11:00 +31°C° 0 mm 1 m/S 739 mmHg 49%
12:00 +32°C° 0 mm 2 m/S 739 mmHg 45%
13:00 +34°C° 0 mm 2 m/S 739 mmHg 42%
14:00 +35°C° 0 mm 2 m/S 739 mmHg 39%
15:00 +34°C° 0 mm 2 m/S 739 mmHg 41%
16:00 +34°C° 0 mm 2 m/S 738 mmHg 44%
17:00 +32°C° 0 mm 2 m/S 738 mmHg 47%
18:00 +30°C° 0.1 mm 2 m/S 738 mmHg 56%
19:00 +27°C° 0.1 mm 2 m/S 738 mmHg 65%
20:00 +24°C° 0.1 mm 2 m/S 738 mmHg 74%
21:00 +23°C° 0.9 mm 1 m/S 738 mmHg 79%
22:00 +22°C° 0.9 mm 1 m/S 739 mmHg 84%
23:00 +21°C° 0.9 mm 1 m/S 739 mmHg 89%

27 Juni, Sonntag

Zeit Temperatur Niederschläge Wind Luftdruck Luftfeuchtigkeit
00:00 +21°C° 0.2 mm 1 m/S 739 mmHg 89%
01:00 +20°C° 0.2 mm 1 m/S 739 mmHg 89%
02:00 +20°C° 0.2 mm 1 m/S 739 mmHg 89%
03:00 +21°C° 0 mm 1 m/S 739 mmHg 89%
04:00 +21°C° 0 mm 1 m/S 739 mmHg 90%
05:00 +22°C° 0 mm 1 m/S 739 mmHg 90%
06:00 +23°C° 0 mm 1 m/S 739 mmHg 82%
07:00 +25°C° 0 mm 1 m/S 739 mmHg 75%
08:00 +27°C° 0 mm 2 m/S 740 mmHg 67%
09:00 +28°C° 0 mm 2 m/S 740 mmHg 61%
10:00 +30°C° 0 mm 2 m/S 740 mmHg 56%
11:00 +31°C° 0 mm 2 m/S 740 mmHg 50%
12:00 +32°C° 0 mm 2 m/S 740 mmHg 48%
13:00 +32°C° 0 mm 2 m/S 740 mmHg 46%
14:00 +34°C° 0 mm 3 m/S 740 mmHg 44%
15:00 +33°C° 0 mm 3 m/S 739 mmHg 49%
16:00 +30°C° 0 mm 3 m/S 739 mmHg 54%
17:00 +29°C° 0 mm 4 m/S 739 mmHg 58%
18:00 +27°C° 0.1 mm 4 m/S 739 mmHg 66%
19:00 +25°C° 0.1 mm 3 m/S 740 mmHg 74%
20:00 +22°C° 0.1 mm 3 m/S 740 mmHg 82%
21:00 +21°C° 0 mm 3 m/S 740 mmHg 85%
22:00 +20°C° 0 mm 2 m/S 740 mmHg 89%
23:00 +19°C° 0 mm 2 m/S 740 mmHg 93%
Mehr zeigen

Wir brauchen deine Erlaubnis

Meteoprog und unser Service Anbieter werden persönliche Daten aufbewahren, so wie Cookies, Geräte Bezeichnung oder ähnliche Technologien von deinem Gerät und Prozess, so wie Persönliche Daten Inhalte und Werbungen, genauso wie social Media und den Verkehr zu analysieren.

  • Aufbewahrung und/oder Zugang zu deiner Geräte Informationen.

    Cookies, Geräte Bezeichnung oder andere Informationen, können aufbewahrt oder Zugang zu deinem Gerät erhalten, für den Grund, der oben angegeben wird.

  • Personalisierte Werbung und Inhalte, Messungen, Einblick in das Publikum und Produkt Entwicklung.

    Werbungen und Inhalte können personalisiert werden, basierend auf ein Profil. Mehr Daten können besser personalisierte Werbungen und Inhalte hinzufügen. Werbung und Inhalte können gezeigt und gemessen werden. Einblicke über das Publikum, welche die Werbung gesehen haben und den Inhalt, können abgeleitet werden. So wie Daten können genutzt werden, um es zu verbessern oder die Benutzer Erfahrung zu verbessern das System und die Software.

Wenn du “Ich stimme zu” klickst, erlaubst du uns, die Cookies zu benutzen die Geräte Bezeichnung, den Web oder ähnliche Technologien zu benutzen. Deine Settings, können in deinem Gerät bei deinem Browser geändert werden.

Für den bestimmten Zweck, berechtigten Interessen beruhen darauf, mehr als auf den Inhalt. Du kannst mehr darüber in unseren Privaten und Cookie Politik lesen.